When you browse on this site, cookies collect data to enhance your experience and personalize the content and advertising you see.
Visit our Privacy Policy to learn more. By continuing to use the site, you agree to this use of cookies and data.
  • In United Kingdom
  • List of Countries
  • For 7 days
  • Water Temperature
  • Weather Map
  • Weather Widgets
  • user-avatar
    Login

    Hourly Weather Aberdour

    Today, 29 May, Friday

    Time Temperature Precipitation Wind Pressure Humidity
    00:00 +14°C° 0 mm 1 mps 761 mmHg 88%
    01:00 +14°C° 0 mm 1 mps 761 mmHg 88%
    02:00 +13°C° 0 mm 1 mps 761 mmHg 88%
    03:00 +12°C° 0 mm 0 mps 761 mmHg 89%
    04:00 +13°C° 0 mm 0 mps 761 mmHg 87%
    05:00 +15°C° 0 mm 1 mps 761 mmHg 85%
    06:00 +16°C° 0 mm 1 mps 761 mmHg 83%
    07:00 +18°C° 0 mm 1 mps 761 mmHg 78%
    08:00 +20°C° 0 mm 1 mps 761 mmHg 73%
    09:00 +21°C° 0 mm 1 mps 760 mmHg 68%
    10:00 +21°C° 0 mm 2 mps 760 mmHg 65%
    11:00 +23°C° 0 mm 2 mps 760 mmHg 62%
    12:00 +24°C° 0 mm 2 mps 760 mmHg 60%
    13:00 +24°C° 0 mm 2 mps 760 mmHg 61%
    14:00 +24°C° 0 mm 3 mps 759 mmHg 62%
    15:00 +24°C° 0 mm 3 mps 759 mmHg 64%
    16:00 +22°C° 0 mm 3 mps 759 mmHg 67%
    17:00 +23°C° 0 mm 2 mps 759 mmHg 70%
    18:00 +21°C° 0 mm 2 mps 759 mmHg 73%
    19:00 +19°C° 0 mm 2 mps 759 mmHg 74%
    20:00 +19°C° 0 mm 1 mps 759 mmHg 75%
    21:00 +16°C° 0 mm 1 mps 759 mmHg 76%
    22:00 +15°C° 0 mm 1 mps 759 mmHg 77%
    23:00 +15°C° 0 mm 1 mps 759 mmHg 77%

    Tomorrow, 30 May, Saturday

    Time Temperature Precipitation Wind Pressure Humidity
    00:00 +13°C° 0 mm 0 mps 759 mmHg 78%
    01:00 +13°C° 0 mm 0 mps 759 mmHg 79%
    02:00 +13°C° 0 mm 0 mps 759 mmHg 80%
    03:00 +13°C° 0 mm 0 mps 759 mmHg 81%
    04:00 +14°C° 0 mm 0 mps 759 mmHg 80%
    05:00 +15°C° 0 mm 0 mps 759 mmHg 80%
    06:00 +15°C° 0 mm 0 mps 759 mmHg 79%
    07:00 +18°C° 0 mm 1 mps 759 mmHg 77%
    08:00 +19°C° 0 mm 1 mps 759 mmHg 74%
    09:00 +20°C° 0 mm 2 mps 759 mmHg 72%
    10:00 +20°C° 0 mm 2 mps 759 mmHg 70%
    11:00 +21°C° 0 mm 3 mps 759 mmHg 69%
    12:00 +21°C° 0 mm 3 mps 759 mmHg 68%
    13:00 +21°C° 0 mm 4 mps 759 mmHg 66%
    14:00 +21°C° 0 mm 4 mps 759 mmHg 65%
    15:00 +21°C° 0 mm 5 mps 759 mmHg 63%
    16:00 +20°C° 0 mm 4 mps 759 mmHg 65%
    17:00 +19°C° 0 mm 4 mps 759 mmHg 68%
    18:00 +18°C° 0 mm 4 mps 758 mmHg 70%
    19:00 +15°C° 0 mm 4 mps 759 mmHg 74%
    20:00 +13°C° 0 mm 3 mps 759 mmHg 77%
    21:00 +11°C° 0 mm 3 mps 759 mmHg 80%
    22:00 +10°C° 0 mm 2 mps 759 mmHg 81%
    23:00 +9°C° 0 mm 2 mps 759 mmHg 83%

    Day after tomorrow, 31 May, Sunday

    Time Temperature Precipitation Wind Pressure Humidity
    00:00 +8°C° 0 mm 2 mps 760 mmHg 84%
    01:00 +8°C° 0 mm 2 mps 760 mmHg 85%
    02:00 +7°C° 0 mm 2 mps 760 mmHg 86%
    03:00 +8°C° 0 mm 1 mps 760 mmHg 86%
    04:00 +8°C° 0 mm 2 mps 760 mmHg 84%
    05:00 +9°C° 0 mm 2 mps 760 mmHg 82%
    06:00 +10°C° 0 mm 2 mps 760 mmHg 80%
    07:00 +12°C° 0 mm 2 mps 760 mmHg 75%
    08:00 +14°C° 0 mm 2 mps 760 mmHg 69%
    09:00 +14°C° 0 mm 3 mps 760 mmHg 64%
    10:00 +16°C° 0 mm 3 mps 760 mmHg 62%
    11:00 +17°C° 0 mm 3 mps 760 mmHg 60%
    12:00 +18°C° 0 mm 3 mps 760 mmHg 58%
    13:00 +19°C° 0 mm 3 mps 760 mmHg 59%
    14:00 +19°C° 0 mm 3 mps 759 mmHg 61%
    15:00 +19°C° 0 mm 4 mps 759 mmHg 62%
    16:00 +18°C° 0 mm 3 mps 759 mmHg 65%
    17:00 +18°C° 0 mm 3 mps 759 mmHg 69%
    18:00 +17°C° 0 mm 3 mps 759 mmHg 73%
    19:00 +14°C° 0 mm 3 mps 759 mmHg 78%
    20:00 +14°C° 0 mm 2 mps 759 mmHg 83%
    21:00 +12°C° 0 mm 2 mps 759 mmHg 88%
    22:00 +11°C° 0 mm 1 mps 759 mmHg 89%
    23:00 +11°C° 0 mm 1 mps 759 mmHg 89%

    1 June, Monday

    Time Temperature Precipitation Wind Pressure Humidity
    00:00 +10°C° 0 mm 1 mps 759 mmHg 90%
    01:00 +10°C° 0 mm 1 mps 759 mmHg 90%
    02:00 +10°C° 0 mm 1 mps 758 mmHg 90%
    03:00 +9°C° 0 mm 0 mps 758 mmHg 90%
    04:00 +10°C° 0 mm 0 mps 758 mmHg 88%
    05:00 +11°C° 0 mm 0 mps 758 mmHg 86%
    06:00 +12°C° 0 mm 0 mps 758 mmHg 84%
    07:00 +13°C° 0 mm 0 mps 758 mmHg 79%
    08:00 +16°C° 0 mm 1 mps 758 mmHg 74%
    09:00 +19°C° 0 mm 1 mps 758 mmHg 69%
    10:00 +19°C° 0.1 mm 1 mps 758 mmHg 68%
    11:00 +19°C° 0.1 mm 2 mps 757 mmHg 67%
    12:00 +20°C° 0.1 mm 2 mps 757 mmHg 65%
    13:00 +20°C° 0.3 mm 2 mps 757 mmHg 67%
    14:00 +20°C° 0.3 mm 2 mps 757 mmHg 69%
    15:00 +20°C° 0.3 mm 2 mps 757 mmHg 71%
    16:00 +19°C° 0.3 mm 2 mps 756 mmHg 73%
    17:00 +19°C° 0.3 mm 2 mps 756 mmHg 75%
    18:00 +19°C° 0.3 mm 2 mps 755 mmHg 77%
    19:00 +17°C° 0.1 mm 2 mps 755 mmHg 80%
    20:00 +16°C° 0.1 mm 2 mps 755 mmHg 82%
    21:00 +15°C° 0.1 mm 2 mps 755 mmHg 85%
    22:00 +14°C° 0 mm 2 mps 755 mmHg 86%
    23:00 +14°C° 0 mm 2 mps 754 mmHg 87%

    2 June, Tuesday

    Time Temperature Precipitation Wind Pressure Humidity
    00:00 +13°C° 0 mm 2 mps 754 mmHg 88%
    01:00 +13°C° 0 mm 2 mps 754 mmHg 89%
    02:00 +13°C° 0 mm 2 mps 753 mmHg 89%
    03:00 +13°C° 0 mm 1 mps 753 mmHg 89%
    04:00 +13°C° 0.2 mm 1 mps 753 mmHg 90%
    05:00 +13°C° 0.2 mm 1 mps 753 mmHg 91%
    06:00 +14°C° 0.2 mm 1 mps 752 mmHg 92%
    07:00 +14°C° 0.6 mm 1 mps 752 mmHg 92%
    08:00 +14°C° 0.6 mm 1 mps 752 mmHg 93%
    09:00 +14°C° 0.6 mm 1 mps 752 mmHg 93%
    10:00 +14°C° 0.4 mm 1 mps 752 mmHg 93%
    11:00 +14°C° 0.4 mm 1 mps 752 mmHg 92%
    12:00 +14°C° 0.4 mm 1 mps 752 mmHg 92%
    13:00 +14°C° 0.3 mm 1 mps 752 mmHg 92%
    14:00 +14°C° 0.3 mm 1 mps 751 mmHg 92%
    15:00 +14°C° 0.3 mm 1 mps 751 mmHg 92%
    16:00 +13°C° 0.4 mm 2 mps 751 mmHg 93%
    17:00 +12°C° 0.4 mm 3 mps 751 mmHg 94%
    18:00 +12°C° 0.4 mm 3 mps 751 mmHg 96%
    19:00 +11°C° 0.4 mm 4 mps 751 mmHg 96%
    20:00 +11°C° 0.4 mm 4 mps 751 mmHg 96%
    21:00 +10°C° 0.4 mm 4 mps 751 mmHg 96%
    22:00 +10°C° 0.1 mm 4 mps 751 mmHg 96%
    23:00 +10°C° 0.1 mm 4 mps 751 mmHg 96%

    3 June, Wednesday

    Time Temperature Precipitation Wind Pressure Humidity
    00:00 +10°C° 0.1 mm 3 mps 752 mmHg 95%
    01:00 +10°C° 0.1 mm 3 mps 751 mmHg 95%
    02:00 +9°C° 0.1 mm 3 mps 751 mmHg 95%
    03:00 +9°C° 0.1 mm 3 mps 751 mmHg 95%
    04:00 +9°C° 0.4 mm 3 mps 752 mmHg 94%
    05:00 +10°C° 0.4 mm 3 mps 752 mmHg 93%
    06:00 +10°C° 0.4 mm 2 mps 752 mmHg 93%
    07:00 +10°C° 0.2 mm 3 mps 752 mmHg 92%
    08:00 +11°C° 0.2 mm 3 mps 752 mmHg 91%
    09:00 +11°C° 0.2 mm 3 mps 752 mmHg 89%
    10:00 +11°C° 0 mm 3 mps 752 mmHg 87%
    11:00 +12°C° 0 mm 4 mps 752 mmHg 84%
    12:00 +13°C° 0 mm 4 mps 752 mmHg 81%
    13:00 +13°C° 0 mm 4 mps 752 mmHg 80%
    14:00 +14°C° 0 mm 4 mps 752 mmHg 78%
    15:00 +14°C° 0 mm 5 mps 752 mmHg 76%
    16:00 +14°C° 0 mm 4 mps 752 mmHg 77%
    17:00 +14°C° 0 mm 4 mps 752 mmHg 78%
    18:00 +13°C° 0 mm 4 mps 751 mmHg 80%
    19:00 +12°C° 0 mm 4 mps 751 mmHg 83%
    20:00 +11°C° 0 mm 3 mps 751 mmHg 87%
    21:00 +9°C° 0 mm 3 mps 751 mmHg 90%
    22:00 +9°C° 0 mm 2 mps 751 mmHg 91%
    23:00 +8°C° 0 mm 2 mps 751 mmHg 92%
    Show more